Location: Newark
(1.4692°S, 78.8175°W)
Time: 15:29:14
(UTC+00:00)

Hubble Space Telescope - Visible Passes

Search period start: 14 October 2019 00:00
Search period end: 24 October 2019 00:00
Orbit: 536 x 540 km, 28.5° (Epoch: 13 October)

Date Brightness Start Highest point End Pass type
(mag) Time Alt. Az. Time Alt. Az. Time Alt. Az.
14 Oct 2.8 23:55:53 10° N 23:57:41 13° NNE 23:58:06 12° NE visible
15 Oct 2.5 23:44:25 10° NNW 23:47:10 17° NNE 23:48:45 14° NE visible
16 Oct 2.1 23:33:19 10° NNW 23:36:38 23° NNE 23:39:30 12° E visible
17 Oct 3.4 01:13:45 10° WNW 01:14:53 18° WNW 01:14:53 18° WNW visible
17 Oct 1.7 23:22:22 10° NW 23:26:06 32° NNE 23:29:49 10° E visible
18 Oct 2.8 01:03:23 10° W 01:05:44 27° WSW 01:05:44 27° WSW visible
18 Oct 3.7 09:38:09 10° SSE 09:39:04 11° SSE 09:40:01 10° SE visible
19 Oct 2.6 00:53:10 10° W 00:56:36 26° SSW 00:56:36 26° SSW visible
19 Oct 3.5 09:26:18 10° S 09:28:36 14° SSE 09:30:53 10° ESE visible
20 Oct 3.0 00:43:07 10° WSW 00:46:09 20° SSW 00:47:30 17° S visible
20 Oct 3.0 09:16:25 16° S 09:18:06 19° SSE 09:21:06 10° ESE visible
21 Oct 3.5 00:33:18 10° WSW 00:35:38 15° SSW 00:38:00 10° S visible
21 Oct 2.5 09:07:15 26° SSE 09:07:34 26° SSE 09:11:03 10° E visible
22 Oct 3.7 00:24:05 10° SW 00:25:10 11° SSW 00:26:14 10° S visible
22 Oct 2.6 08:58:07 30° ESE 08:58:07 30° ESE 09:00:50 10° E visible
23 Oct 3.2 08:48:59 21° E 08:48:59 21° E 08:50:29 10° ENE visible
23 Oct 2.1 10:24:23 10° W 10:27:36 23° NNW 10:30:55 10° NNE visible
